Погода Укмерге

Поиск расширенной информации на нашем сайте:

Полезная информация:

Новости сайта



02.01.2020
Опубликован Долгосрочный прогноз погоды по городам России и ближнего зарубежья на январь 2020 года.
Карты: Прогноз на январь и февраль 2020 года, Сравнение прогнозируемой аномалии приземной температуры воздуха на январь 2020 года по разным моделям.




Погода Укмерге - сегодня

Время (UTC), дата Ветер
(°,м/с) 
Видим.   Явления Облачность Т
(°С)
Тd
(°С)
f(%) Тe
(°С)
Pmin
(гПа)
dP
(гПа)
Po
(мм)
O2
(г/м3)
Тmin Tmax R s Состояние
почвы
03 24.02.21 250 (З) 2-5{05}  0400 м  туман  10/0 
+1.4 +1.3 99 +1  1029.1  -0.4  765  306        14   
06 24.02.21 220 (ЮЗ) 2-3{06}  0500 м  туман  10/0 
+1 +0.9 99 1029.4  0.3  765  307  +0.9      15   
09 24.02.21 220 (ЮЗ) 2-4{05}  0300 м  туман  10/0 
+3 +2.8 99 +2  1028.8  -0.6  765  304        14   
12 24.02.21 230 (ЮЗ) 2-4{05}  0300 м  туман  10/0 
+4 +3.8 99 +4  1028.9  0.2  765  303        14   
15 24.02.21 200 (Ю) 1-4{04}  0100 м  туман  10/0 
+4.7 +4.5 99 +6  1027.6  -1.3  764  302        12   
21 24.02.21 210 (ЮЗ) 2-4{06}  3400 м  дымка  ясно 
+4.6 +3.9 95 +4  1025.6  -0.5  762  301        13   
00 25.02.21 230 (ЮЗ) 3-6{07}  8000 м  дымка  9/9 1500 м 
+4.9 +3.9 93 +4  1024.7  -0.9  762  301        12   
03 25.02.21 230 (ЮЗ) 4-7{07}  11000 м    10/0 2000 м 
+4.8 +3.5 91 +3  1023.9  -0.8  761  301         
12 25.02.21 230 (ЮЗ) 2-5{08}  15000 м    10/0 
+7.6 +4.6 81 +8  1023.9  -0.5  761  298           
15 25.02.21 210 (ЮЗ) 2-4{05}  17000 м    9/0 
+10.8 +5.7 71 +11  1022.1  -1.7  760  294           
18 25.02.21 210 (ЮЗ) 3-6{07}  13000 м    ясно <0100 м 
+8.1 +4.6 79 +7  1020.8  -1.3  759  296    +10.9       
21 25.02.21 210 (ЮЗ) 3-6{07}  9000 м  дымка  ясно <0100 м 
+6.7 +4.6 86 +6  1019.3  -1.6  758  297           
00 26.02.21 230 (ЮЗ) 4-7{08}  8000 м  дымка  ясно 
+5.6 +4.3 91 +4  1017.8  -1.5  757  298           
03 26.02.21 250 (З) 4-8{08}  6000 м  дымка  10/10 200 м 
+5.1 +4.1 93 +3  1016.8  -1  756  298           
06 26.02.21 240 (ЮЗ) 4-7{09}  7000 м  дымка  1/0 
+3.4 +2.4 93 +1  1016.9  756  300  +3.3    0.2     
12 26.02.21 250 (З) 5-8{09}  8000 м  дымка  10/10 300 м 
+3.3 +1.6 89 +1  1017.3  756  301           
15 26.02.21 240 (ЮЗ) 5-8{09}  8000 м  дымка  10/10 200 м 
+2.8 +2.1 95 1016  -1.3  755  301           
18 26.02.21 230 (ЮЗ) 4-6{08}  4400 м  дымка  10/10 100 м 
+2.3 +1.7 96 1016.2  0.2  755  302    +4       
21 26.02.21 260 (З) 4-8{08}  11000 м    10/10 200 м 
+2.7 +2 95 +1  1016.1  -0.1  755  301           
00 27.02.21 270 (З) 5-7{09}  13000 м    9/9 600 м 
+2.5 +1.4 92 1016.2  0.1  755  301           
03 27.02.21 270 (З) 4-7{07}  20000 м  в посл. час дождь  9/9 300 м 
+2.2 +1.3 94 1016.7  0.5  756  302           
06 27.02.21 320 (СЗ) 6-9{13}  20000 м    9/9 600 м 
+2 +0.1 87 -1  1018.8  2.1  757  303  +2    0.4     
09 27.02.21 310 (СЗ) 7-11{11}  20000 м    ясно 
+4.1 +0.4 77 +1  1021.1  2.3  759  301           
12 27.02.21 330 (СЗ) 6-11{13}  20000 м    6/6 1000 м 
+6 -0.2 64 +4  1022.9  1.9  760  300           
15 27.02.21 330 (СЗ) 5-8{14}  20000 м    ясно 
+5 -1.3 64 +3  1024.7  1.7  762  302           
Время (UTC), дата Ветер
(°,м/с) 
Видим.   Явления Облачность Т
(°С)
Тd
(°С)
f(%) Тe
(°С)
Pmin
(гПа)
dP
(гПа)
Po
(мм)
O2
(г/м3)
Тmin Tmax R s Состояние
почвы

Для получения пояснительной информации подведите курсор к названию столбца.

ПОГОДА Укмерге - архив

Всё, что Вы хотите узнать о погоде Укмерге - удобно и подробно!

Выберите нужную дату (начиная с 1 января 2019* года) и нажмите кнопку "Найти".
Будут отображены архивные сводки погоды по пункту Укмерге, начиная с указанной даты.


Отображать данные в формате CSV (для использования в таблицах Excel)


Внимание! Наш архив погоды предназначен исключительно для личного некоммерческого использования в познавательных целях. Если Вам необходимы официальные справки о состоянии погоды (для производственных, юридических, коммерческих и т.п. целей), обращайтесь в органы Росгидромета.

*Примечание: данная дата относится к архиву по метеостанциям СССР (Россия, СНГ, Балтия).
Архив по метеостанциям Зарубежной Европы и Азии (кроме Китая) хранится 10 дней, по другим регионам земного шара (Китай, Африка, Америка, Австралия, Океания) - 1 день.

Укмерге - район местоположения метеостанции


Название, широта, долгота, высота метеостанции:
Укмерге 55.2°ш. 24.8°д. 73 м над ур. моря [Литва]

Дополнительная информация

В oтличие oт бoльшинства пoгoдных сайтoв мы публикуем пoдрoбную метеoинфoрмацию в детальнoм прoфессиoнальнoм фoрмате.

Характеристики температуры и влажнoсти вoздуха измеряются на высoте 2 м в тени вдали oт зданий и деревьев.
Скoрoсть ветра измеряется на высoте 10 м (на урoвне рoста челoвека скoрoсть ветра ниже в 1.5-2 раза). Если метеoстанция нахoдится в гoрoде или в лесу, тo скoрoсть ветра занижена на 2-4 м/с пo сравнению с oткрытым местoм. Скoрoсть ветра над акватoриями крупных рек и oзёр, а также на вершинах хoлмoв на 2-5 м/с выше, чем в oбычных услoвиях.
Атмoсфернoе давление в разных тoчках местнoсти мoжет значительнo oтличаться oт давления на метеoстанции, в зависимoсти oт услoвий рельефа (при пoдъёме на 10 м давление пoнижается примернo на 1 мм рт.ст.).